This demonstration page uses our WeatherBlox Daily Observations layout. Learn more.

Hourly Observations for May 1, 2020

Temp ( °F °C ) Dew Point ( °F °C ) Humidity (%) Winds ( mph kmh ) Pressure ( in mb ) Visibility ( mi km ) Precip ( " mm )
12:15 am 00:15 Cloudy 50 10 50 10 100 100 Calm 29.76 1008 10 16.0934 0 0
12:35 am 00:35 Cloudy 50 10 50 10 100 100 Calm 29.76 1008 10 16.0934 0.01 0.254
12:55 am 00:55 Cloudy 50 10 50 10 100 100 Calm 29.76 1008 10 16.0934 0.01 0.254
1:15 am 01:15 Cloudy 48 9 48 9 100 100 WNW 3 6 29.76 1008 10 16.0934 0 0
1:35 am 01:35 Cloudy 48 9 48 9 100 100 NW 3 6 29.75 1007 10 16.0934 0 0
1:55 am 01:55 Cloudy 48 9 48 9 100 100 Calm 29.74 1007 10 16.0934 0 0
2:15 am 02:15 Cloudy 46 8 46 8 100 100 NNW 3 6 29.73 1007 3 4.82802 0 0
2:35 am 02:35 Cloudy 46 8 46 8 100 100 Calm 29.74 1007 10 16.0934 0 0
2:55 am 02:55 Cloudy 46 8 46 8 100 100 N 6 9 29.73 1007 10 16.0934 0 0
3:15 am 03:15 Cloudy 48 9 46 8 94 94 NNW 7 11 29.74 1007 10 16.0934 0 0
3:35 am 03:35 Cloudy 48 9 46 8 94 94 N 6 9 29.74 1007 10 16.0934 0 0
3:55 am 03:55 Cloudy 48 9 46 8 94 94 N 5 7 29.73 1007 10 16.0934 0 0
4:15 am 04:15 Cloudy 46 8 46 8 100 100 NNW 5 7 29.73 1007 10 16.0934 0 0
4:35 am 04:35 Mostly Cloudy 46 8 45 7 93 93 N 5 7 29.73 1007 10 16.0934 0 0
4:55 am 04:55 Mostly Cloudy 46 8 45 7 93 93 Calm 29.74 1007 10 16.0934 0 0
5:15 am 05:15 Cloudy 46 8 46 8 100 100 NNW 7 11 29.74 1007 10 16.0934 0 0
5:35 am 05:35 Cloudy 48 9 45 7 87 87 NW 7 11 29.74 1007 10 16.0934 0 0
5:55 am 05:55 Cloudy 48 9 45 7 87 87 NW 10 17 29.74 1007 10 16.0934 0 0
6:15 am 06:15 Mostly Cloudy 48 9 45 7 87 87 NW 6 9 29.75 1007 10 16.0934 0 0
6:35 am 06:35 Cloudy 48 9 45 7 87 87 NW 5 7 29.76 1008 10 16.0934 0 0
6:55 am 06:55 Cloudy 48 9 45 7 87 87 NW 3 6 29.77 1008 10 16.0934 0 0
7:15 am 07:15 Cloudy 48 9 45 7 87 87 Calm 29.78 1008 10 16.0934 0 0
7:35 am 07:35 Cloudy 50 10 45 7 82 82 NNW 5 7 29.78 1008 10 16.0934 0 0
7:55 am 07:55 Cloudy 50 10 45 7 82 82 N 5 7 29.78 1008 10 16.0934 0 0
8:15 am 08:15 Cloudy 48 9 46 8 94 94 Calm 29.8 1009 10 16.0934 0.01 0.254
8:35 am 08:35 Cloudy 50 10 46 8 88 88 NNW 5 7 29.81 1009 10 16.0934 0.01 0.254
8:55 am 08:55 Cloudy 50 10 46 8 88 88 NNW 6 9 29.81 1009 10 16.0934 0.01 0.254
9:15 am 09:15 Cloudy 50 10 46 8 88 88 NNW 6 9 29.81 1009 10 16.0934 0 0
9:35 am 09:35 Cloudy 52 11 46 8 82 82 N 5 7 29.8 1009 10 16.0934 0 0
9:55 am 09:55 Cloudy 54 12 46 8 77 77 NNW 9 15 29.81 1010 10 16.0934 0 0
10:15 am 10:15 Cloudy 54 12 46 8 77 77 NNW 10 17 29.81 1010 10 16.0934 0 0
10:35 am 10:35 Partly Cloudy 55 13 46 8 72 72 NNW 12 19 29.81 1010 10 16.0934 0 0
10:55 am 10:55 Sunny 55 13 46 8 72 72 NW 13 20 29.81 1010 10 16.0934 0 0
11:15 am 11:15 Mostly Cloudy 57 14 46 8 67 67 NW 13 20 29.81 1009 10 16.0934 0 0
11:35 am 11:35 Partly Cloudy 59 15 45 7 59 59 N 12 19 29.81 1009 10 16.0934 0 0
11:55 am 11:55 Mostly Cloudy 57 14 43 6 59 59 N 13 20 29.81 1009 10 16.0934 0 0
12:15 pm 12:15 Mostly Cloudy 59 15 45 7 59 59 NW 15 24 29.81 1009 10 16.0934 0 0
12:35 pm 12:35 Cloudy 59 15 45 7 59 59 NW 10 17 29.8 1009 10 16.0934 0 0
12:55 pm 12:55 Cloudy 59 15 45 7 59 59 NNW 13 20 29.8 1009 10 16.0934 0 0
1:15 pm 13:15 Cloudy 59 15 45 7 59 59 NW 15 24 29.8 1009 10 16.0934 0 0
1:35 pm 13:35 Cloudy 59 15 45 7 59 59 NNW 20 31 29.8 1009 10 16.0934 0 0
1:55 pm 13:55 Cloudy 59 15 45 7 59 59 NW 16 26 29.8 1009 10 16.0934 0 0
2:15 pm 14:15 Mostly Cloudy 61 16 45 7 55 55 NW 17 28 29.8 1009 10 16.0934 0 0
2:35 pm 14:35 Partly Cloudy 61 16 45 7 55 55 NW 17 28 29.8 1009 10 16.0934 0 0
2:55 pm 14:55 Partly Cloudy 63 17 45 7 52 52 WNW 16 26 29.8 1009 10 16.0934 0 0
3:15 pm 15:15 Mostly Cloudy 61 16 45 7 55 55 NW 20 31 29.8 1009 10 16.0934 0 0
3:35 pm 15:35 Mostly Cloudy 61 16 45 7 55 55 NW 16 26 29.81 1009 10 16.0934 0 0
3:55 pm 15:55 Cloudy 61 16 45 7 55 55 WNW 12 19 29.81 1009 10 16.0934 0 0
4:15 pm 16:15 Cloudy 61 16 45 7 55 55 NW 13 20 29.82 1010 10 16.0934 0 0
4:35 pm 16:35 Cloudy 61 16 43 6 52 52 NW 15 24 29.82 1010 10 16.0934 0 0
4:55 pm 16:55 Cloudy 61 16 45 7 55 55 NW 16 26 29.83 1010 10 16.0934 0 0
5:15 pm 17:15 Cloudy 59 15 45 7 59 59 NW 17 28 29.83 1010 10 16.0934 0 0
5:35 pm 17:35 Cloudy 59 15 45 7 59 59 NW 17 28 29.84 1010 10 16.0934 0 0
5:55 pm 17:55 Cloudy 61 16 45 7 55 55 NNW 15 24 29.85 1011 10 16.0934 0 0
6:15 pm 18:15 Cloudy 61 16 45 7 55 55 NNW 13 20 29.85 1011 10 16.0934 0 0
6:35 pm 18:35 Cloudy 59 15 45 7 59 59 NW 9 15 29.86 1011 10 16.0934 0 0
6:55 pm 18:55 Cloudy 59 15 45 7 59 59 NNW 13 20 29.87 1011 10 16.0934 0 0
7:15 pm 19:15 Cloudy 59 15 43 6 55 55 NW 16 26 29.88 1012 10 16.0934 0 0
7:35 pm 19:35 Cloudy 59 15 45 7 59 59 NW 20 31 29.89 1012 10 16.0934 0 0
7:55 pm 19:55 Mostly Cloudy 57 14 45 7 63 63 NW 21 33 29.89 1012 10 16.0934 0 0
8:15 pm 20:15 Partly Cloudy 55 13 45 7 67 67 NW 14 22 29.89 1012 10 16.0934 0 0
8:35 pm 20:35 Clear 55 13 45 7 67 67 NW 15 24 29.9 1013 10 16.0934 0 0
8:55 pm 20:55 Clear 55 13 45 7 67 67 NW 17 28 29.91 1013 10 16.0934 0 0
9:15 pm 21:15 Clear 55 13 45 7 67 67 NW 17 28 29.92 1013 10 16.0934 0 0
9:35 pm 21:35 Clear 55 13 45 7 67 67 NW 20 31 29.93 1014 10 16.0934 0 0
9:55 pm 21:55 Clear 54 12 45 7 72 72 NW 17 28 29.95 1014 10 16.0934 0 0
10:15 pm 22:15 Clear 54 12 46 8 77 77 NW 15 24 29.95 1014 10 16.0934 0 0
10:35 pm 22:35 Clear 54 12 46 8 77 77 NW 20 31 29.95 1014 10 16.0934 0 0
10:55 pm 22:55 Clear 54 12 46 8 77 77 NW 17 28 29.96 1015 10 16.0934 0 0
11:15 pm 23:15 Clear 54 12 46 8 77 77 NW 16 26 29.96 1015 10 16.0934 0 0
11:35 pm 23:35 Clear 54 12 46 8 77 77 NNW 14 22 29.97 1015 10 16.0934 0 0
11:55 pm 23:55 Clear 54 12 46 8 77 77 NNW 17 28 29.98 1015 10 16.0934 0 0

Powered by AerisWeather